Погода в Гуамке

Россия / Краснодарский край     44°13′52″N   39°54′08″E
темп.,
°C
ветер,
м/с
пор.,
м/с
влажн.,
%
обл.,
%
осадки,
мм/ч
давл.,
гПа
погр.,
м
23 апреля, пт
пт2300:00+5ююз21945 0.0 102517
03:00+3ю22915 0.0 102622
06:00+3ю22881 0.0 102631
09:00+11с11580 0.0 1024726
12:00+15с34435 0.0 10221690
15:00+15с3341100 0.0 10211692
18:00+12ссв23667 0.0 1020149
21:00+7ю2280100 0.0 102128
24 апреля, сб
сб2400:00+8ююз2255100 0.0 102024
03:00+7ю2256100 0.0 102023
06:00+7ююз1167100 0.0 102021
09:00+10юз265799 0.1 1020758
12:00+14юз47466 0.0 10191410
15:00+15юз37493 0.0 10191446
18:00+13зюз24611 0.0 1020294
21:00+6всв1193100 0.0 102346
25 апреля, вс
вс2500:00+6ссв1193100 0.1 1023183
03:00+5в1194100 0.1 102238
06:00+5вюв129495 0.0 1022120
09:00+10ссв227097 0.0 1019757
12:00+13ссв326497 0.0 10171115
15:00+13св3469100 0.0 1015972
18:00+11всв2483100 0.0 1014478
21:00+8вюв1197100 0.0 101539
26 апреля, пн
пн2600:00+8з0198100 0.4 101351
03:00+8ссз109999 0.4 101281
06:00+7с1199100 0.0 1011106
09:00+7з1299100 3.8 1012185
12:00+7юв1198100 7.3 101298
15:00+8с22100100 12.3 1011207
18:00+6ссз12100100 12.3 1014245
21:00+6сз12100100 13.7 1017185
27 апреля, вт
вт2700:00+6сз12100100 0.4 1017140
03:00+5ссз1299100 0.4 1018156
06:00+4ю119640 0.4 1019137
09:00+6всв118472 0.4 1018477
12:00+9ссз1174100 0.1 1017850
15:00+10ссв217387 0.1 1016720
18:00+10ссв227790 0.0 1016383
21:00+8всв1189100 0.1 101920